Year,Month,Day,Hour,Minute,Value (Times are PST for insolation in W/m^2)
2020,11,05,00,00,0.00
2020,11,05,00,01,0.00
2020,11,05,00,02,0.00
2020,11,05,00,03,0.00
2020,11,05,00,04,0.00
2020,11,05,00,05,0.00
2020,11,05,00,06,0.00
2020,11,05,00,07,0.00
2020,11,05,00,08,0.00
2020,11,05,00,09,0.00
2020,11,05,00,10,0.00
2020,11,05,00,11,0.00
2020,11,05,00,12,0.00
2020,11,05,00,13,0.00
2020,11,05,00,14,0.00
2020,11,05,00,15,0.00
2020,11,05,00,16,0.00
2020,11,05,00,17,0.00
2020,11,05,00,18,0.00
2020,11,05,00,19,0.00
2020,11,05,00,20,0.00
2020,11,05,00,21,0.00
2020,11,05,00,22,0.00
2020,11,05,00,23,0.00
2020,11,05,00,24,0.00
2020,11,05,00,25,0.00
2020,11,05,00,26,0.00
2020,11,05,00,27,0.00
2020,11,05,00,28,0.00
2020,11,05,00,29,0.00
2020,11,05,00,30,0.00
2020,11,05,00,31,0.00
2020,11,05,00,32,0.00
2020,11,05,00,33,0.00
2020,11,05,00,34,0.00
2020,11,05,00,35,0.00
2020,11,05,00,36,0.00
2020,11,05,00,37,0.00
2020,11,05,00,38,0.00
2020,11,05,00,39,0.00
2020,11,05,00,40,0.00
2020,11,05,00,41,0.00
2020,11,05,00,42,0.00
2020,11,05,00,43,0.00
2020,11,05,00,44,0.00
2020,11,05,00,45,0.00
2020,11,05,00,46,0.00
2020,11,05,00,47,0.00
2020,11,05,00,48,0.00
2020,11,05,00,49,0.00
2020,11,05,00,50,0.00
2020,11,05,00,51,0.00
2020,11,05,00,52,0.00
2020,11,05,00,53,0.00
2020,11,05,00,54,0.00
2020,11,05,00,55,0.00
2020,11,05,00,56,0.00
2020,11,05,00,57,0.00
2020,11,05,00,58,0.00
2020,11,05,00,59,0.00
2020,11,05,01,00,0.00
2020,11,05,01,01,0.00
2020,11,05,01,02,0.00
2020,11,05,01,03,0.00
2020,11,05,01,04,0.00
2020,11,05,01,05,0.00
2020,11,05,01,06,0.00
2020,11,05,01,07,0.00
2020,11,05,01,08,0.00
2020,11,05,01,09,0.00
2020,11,05,01,10,0.00
2020,11,05,01,11,0.00
2020,11,05,01,12,0.00
2020,11,05,01,13,0.00
2020,11,05,01,14,0.00
2020,11,05,01,15,0.00
2020,11,05,01,16,0.00
2020,11,05,01,17,0.00
2020,11,05,01,18,0.00
2020,11,05,01,19,0.00
2020,11,05,01,20,0.00
2020,11,05,01,21,0.00
2020,11,05,01,22,0.00
2020,11,05,01,23,0.00
2020,11,05,01,24,0.00
2020,11,05,01,25,0.00
2020,11,05,01,26,0.00
2020,11,05,01,27,0.00
2020,11,05,01,28,0.00
2020,11,05,01,29,0.00
2020,11,05,01,30,0.00
2020,11,05,01,31,0.00
2020,11,05,01,32,0.00
2020,11,05,01,33,0.00
2020,11,05,01,34,0.00
2020,11,05,01,35,0.00
2020,11,05,01,36,0.00
2020,11,05,01,37,0.00
2020,11,05,01,38,0.00
2020,11,05,01,39,0.00
2020,11,05,01,40,0.00
2020,11,05,01,41,0.00
2020,11,05,01,42,0.00
2020,11,05,01,43,0.00
2020,11,05,01,44,0.00
2020,11,05,01,45,0.00
2020,11,05,01,46,0.00
2020,11,05,01,47,0.00
2020,11,05,01,48,0.00
2020,11,05,01,49,0.00
2020,11,05,01,50,0.00
2020,11,05,01,51,0.00
2020,11,05,01,52,0.00
2020,11,05,01,53,0.00
2020,11,05,01,54,0.00
2020,11,05,01,55,0.00
2020,11,05,01,56,0.00
2020,11,05,01,57,0.00
2020,11,05,01,58,0.00
2020,11,05,01,59,0.00
2020,11,05,02,00,0.00
2020,11,05,02,01,0.00
2020,11,05,02,02,0.00
2020,11,05,02,03,0.00
2020,11,05,02,04,0.00
2020,11,05,02,05,0.00
2020,11,05,02,06,0.00
2020,11,05,02,07,0.00
2020,11,05,02,08,0.00
2020,11,05,02,09,0.00
2020,11,05,02,10,0.00
2020,11,05,02,11,0.00
2020,11,05,02,12,0.00
2020,11,05,02,13,0.00
2020,11,05,02,14,0.00
2020,11,05,02,15,0.00
2020,11,05,02,16,0.00
2020,11,05,02,17,0.00
2020,11,05,02,18,0.00
2020,11,05,02,19,0.00
2020,11,05,02,20,0.00
2020,11,05,02,21,0.00
2020,11,05,02,22,0.00
2020,11,05,02,23,0.00
2020,11,05,02,24,0.00
2020,11,05,02,25,0.00
2020,11,05,02,26,0.00
2020,11,05,02,27,0.00
2020,11,05,02,28,0.00
2020,11,05,02,29,0.00
2020,11,05,02,30,0.00
2020,11,05,02,31,0.00
2020,11,05,02,32,0.00
2020,11,05,02,33,0.00
2020,11,05,02,34,0.00
2020,11,05,02,35,0.00
2020,11,05,02,36,0.00
2020,11,05,02,37,0.00
2020,11,05,02,38,0.00
2020,11,05,02,39,0.00
2020,11,05,02,40,0.00
2020,11,05,02,41,0.00
2020,11,05,02,42,0.00
2020,11,05,02,43,0.00
2020,11,05,02,44,0.00
2020,11,05,02,45,0.00
2020,11,05,02,46,0.00
2020,11,05,02,47,0.00
2020,11,05,02,48,0.00
2020,11,05,02,49,0.00
2020,11,05,02,50,0.00
2020,11,05,02,51,0.00
2020,11,05,02,52,0.00
2020,11,05,02,53,0.00
2020,11,05,02,54,0.00
2020,11,05,02,55,0.00
2020,11,05,02,56,0.00
2020,11,05,02,57,0.00
2020,11,05,02,58,0.00
2020,11,05,02,59,0.00
2020,11,05,03,00,0.00
2020,11,05,03,01,0.00
2020,11,05,03,02,0.00
2020,11,05,03,03,0.00
2020,11,05,03,04,0.00
2020,11,05,03,05,0.00
2020,11,05,03,06,0.00
2020,11,05,03,07,0.00
2020,11,05,03,08,0.00
2020,11,05,03,09,0.00
2020,11,05,03,10,0.00
2020,11,05,03,11,0.00
2020,11,05,03,12,0.00
2020,11,05,03,13,0.00
2020,11,05,03,14,0.00
2020,11,05,03,15,0.00
2020,11,05,03,16,0.00
2020,11,05,03,17,0.00
2020,11,05,03,18,0.00
2020,11,05,03,19,0.00
2020,11,05,03,20,0.00
2020,11,05,03,21,0.00
2020,11,05,03,22,0.00
2020,11,05,03,23,0.00
2020,11,05,03,24,0.00
2020,11,05,03,25,0.00
2020,11,05,03,26,0.00
2020,11,05,03,27,0.00
2020,11,05,03,28,0.00
2020,11,05,03,29,0.00
2020,11,05,03,30,0.00
2020,11,05,03,31,0.00
2020,11,05,03,32,0.00
2020,11,05,03,33,0.00
2020,11,05,03,34,0.00
2020,11,05,03,35,0.00
2020,11,05,03,36,0.00
2020,11,05,03,37,0.00
2020,11,05,03,38,0.00
2020,11,05,03,39,0.00
2020,11,05,03,40,0.00
2020,11,05,03,41,0.00
2020,11,05,03,42,0.00
2020,11,05,03,43,0.00
2020,11,05,03,44,0.00
2020,11,05,03,45,0.00
2020,11,05,03,46,0.00
2020,11,05,03,47,0.00
2020,11,05,03,48,0.00
2020,11,05,03,49,0.00
2020,11,05,03,50,0.00
2020,11,05,03,51,0.00
2020,11,05,03,52,0.00
2020,11,05,03,53,0.00
2020,11,05,03,54,0.00
2020,11,05,03,55,0.00
2020,11,05,03,56,0.00
2020,11,05,03,57,0.00
2020,11,05,03,58,0.00
2020,11,05,03,59,0.00
2020,11,05,04,00,0.00
2020,11,05,04,01,0.00
2020,11,05,04,02,0.00
2020,11,05,04,03,0.00
2020,11,05,04,04,0.00
2020,11,05,04,05,0.00
2020,11,05,04,06,0.00
2020,11,05,04,07,0.00
2020,11,05,04,08,0.00
2020,11,05,04,09,0.00
2020,11,05,04,10,0.00
2020,11,05,04,11,0.00
2020,11,05,04,12,0.00
2020,11,05,04,13,0.00
2020,11,05,04,14,0.00
2020,11,05,04,15,0.00
2020,11,05,04,16,0.00
2020,11,05,04,17,0.00
2020,11,05,04,18,0.00
2020,11,05,04,19,0.00
2020,11,05,04,20,0.00
2020,11,05,04,21,0.00
2020,11,05,04,22,0.00
2020,11,05,04,23,0.00
2020,11,05,04,24,0.00
2020,11,05,04,25,0.00
2020,11,05,04,26,0.00
2020,11,05,04,27,0.00
2020,11,05,04,28,0.00
2020,11,05,04,29,0.00
2020,11,05,04,30,0.00
2020,11,05,04,31,0.00
2020,11,05,04,32,0.00
2020,11,05,04,33,0.00
2020,11,05,04,34,0.00
2020,11,05,04,35,0.00
2020,11,05,04,36,0.00
2020,11,05,04,37,0.00
2020,11,05,04,38,0.00
2020,11,05,04,39,0.00
2020,11,05,04,40,0.00
2020,11,05,04,41,0.00
2020,11,05,04,42,0.00
2020,11,05,04,43,0.00
2020,11,05,04,44,0.00
2020,11,05,04,45,0.00
2020,11,05,04,46,0.00
2020,11,05,04,47,0.00
2020,11,05,04,48,0.00
2020,11,05,04,49,0.00
2020,11,05,04,50,0.00
2020,11,05,04,51,0.00
2020,11,05,04,52,0.00
2020,11,05,04,53,0.00
2020,11,05,04,54,0.00
2020,11,05,04,55,0.00
2020,11,05,04,56,0.00
2020,11,05,04,57,0.00
2020,11,05,04,58,0.00
2020,11,05,04,59,0.00
2020,11,05,05,00,0.00
2020,11,05,05,01,0.00
2020,11,05,05,02,0.00
2020,11,05,05,03,0.00
2020,11,05,05,04,0.00
2020,11,05,05,05,0.00
2020,11,05,05,06,0.00
2020,11,05,05,07,0.00
2020,11,05,05,08,0.00
2020,11,05,05,09,0.00
2020,11,05,05,10,0.00
2020,11,05,05,11,0.00
2020,11,05,05,12,0.00
2020,11,05,05,13,0.00
2020,11,05,05,14,0.00
2020,11,05,05,15,0.00
2020,11,05,05,16,0.00
2020,11,05,05,17,0.00
2020,11,05,05,18,0.00
2020,11,05,05,19,0.00
2020,11,05,05,20,0.00
2020,11,05,05,21,0.00
2020,11,05,05,22,0.00
2020,11,05,05,23,0.00
2020,11,05,05,24,0.00
2020,11,05,05,25,0.00
2020,11,05,05,26,0.00
2020,11,05,05,27,0.00
2020,11,05,05,28,0.00
2020,11,05,05,29,0.00
2020,11,05,05,30,0.00
2020,11,05,05,31,0.00
2020,11,05,05,32,0.00
2020,11,05,05,33,0.00
2020,11,05,05,34,0.00
2020,11,05,05,35,0.00
2020,11,05,05,36,0.00
2020,11,05,05,37,0.00
2020,11,05,05,38,0.00
2020,11,05,05,39,0.00
2020,11,05,05,40,0.00
2020,11,05,05,41,0.00
2020,11,05,05,42,0.00
2020,11,05,05,43,0.00
2020,11,05,05,44,0.00
2020,11,05,05,45,0.00
2020,11,05,05,46,0.00
2020,11,05,05,47,0.00
2020,11,05,05,48,0.00
2020,11,05,05,49,0.00
2020,11,05,05,50,0.00
2020,11,05,05,51,0.00
2020,11,05,05,52,0.00
2020,11,05,05,53,0.00
2020,11,05,05,54,0.00
2020,11,05,05,55,0.00
2020,11,05,05,56,0.00
2020,11,05,05,57,0.00
2020,11,05,05,58,0.00
2020,11,05,05,59,0.00
2020,11,05,06,00,0.00
2020,11,05,06,01,0.00
2020,11,05,06,02,0.00
2020,11,05,06,03,0.00
2020,11,05,06,04,0.00
2020,11,05,06,05,0.00
2020,11,05,06,06,0.00
2020,11,05,06,07,0.00
2020,11,05,06,08,0.00
2020,11,05,06,09,0.00
2020,11,05,06,10,0.00
2020,11,05,06,11,0.00
2020,11,05,06,12,0.00
2020,11,05,06,13,0.00
2020,11,05,06,14,0.00
2020,11,05,06,15,0.00
2020,11,05,06,16,0.00
2020,11,05,06,17,0.00
2020,11,05,06,18,0.00
2020,11,05,06,19,0.00
2020,11,05,06,20,0.00
2020,11,05,06,21,0.00
2020,11,05,06,22,0.00
2020,11,05,06,23,0.00
2020,11,05,06,24,0.00
2020,11,05,06,25,0.00
2020,11,05,06,26,0.00
2020,11,05,06,27,0.00
2020,11,05,06,28,0.00
2020,11,05,06,29,0.00
2020,11,05,06,30,0.00
2020,11,05,06,31,0.00
2020,11,05,06,32,0.00
2020,11,05,06,33,0.00
2020,11,05,06,34,0.00
2020,11,05,06,35,0.00
2020,11,05,06,36,0.00
2020,11,05,06,37,0.00
2020,11,05,06,38,0.00
2020,11,05,06,39,0.00
2020,11,05,06,40,0.00
2020,11,05,06,41,0.00
2020,11,05,06,42,0.00
2020,11,05,06,43,0.00
2020,11,05,06,44,0.00
2020,11,05,06,45,0.00
2020,11,05,06,46,0.00
2020,11,05,06,47,0.00
2020,11,05,06,48,0.00
2020,11,05,06,49,0.00
2020,11,05,06,50,0.00
2020,11,05,06,51,0.00
2020,11,05,06,52,0.00
2020,11,05,06,53,0.00
2020,11,05,06,54,0.00
2020,11,05,06,55,0.00
2020,11,05,06,56,0.00
2020,11,05,06,57,0.00
2020,11,05,06,58,0.00
2020,11,05,06,59,0.00
2020,11,05,07,00,0.00
2020,11,05,07,01,0.00
2020,11,05,07,02,0.00
2020,11,05,07,03,0.00
2020,11,05,07,04,0.00
2020,11,05,07,05,0.00
2020,11,05,07,06,0.00
2020,11,05,07,07,0.00
2020,11,05,07,08,0.00
2020,11,05,07,09,0.00
2020,11,05,07,10,0.00
2020,11,05,07,11,0.00
2020,11,05,07,12,0.00
2020,11,05,07,13,0.00
2020,11,05,07,14,0.00
2020,11,05,07,15,0.00
2020,11,05,07,16,0.00
2020,11,05,07,17,0.00
2020,11,05,07,18,0.00
2020,11,05,07,19,0.00
2020,11,05,07,20,0.00
2020,11,05,07,21,0.00
2020,11,05,07,22,0.00
2020,11,05,07,23,0.00
2020,11,05,07,24,0.00
2020,11,05,07,25,0.00
2020,11,05,07,26,0.00
2020,11,05,07,27,0.00
2020,11,05,07,28,0.00
2020,11,05,07,29,4.00
2020,11,05,07,30,5.20
2020,11,05,07,31,7.00
2020,11,05,07,32,7.00
2020,11,05,07,33,7.00
2020,11,05,07,34,7.00
2020,11,05,07,35,7.00
2020,11,05,07,36,7.00
2020,11,05,07,37,7.10
2020,11,05,07,38,9.00
2020,11,05,07,39,9.60
2020,11,05,07,40,11.00
2020,11,05,07,41,11.00
2020,11,05,07,42,11.00
2020,11,05,07,43,11.00
2020,11,05,07,44,11.00
2020,11,05,07,45,11.00
2020,11,05,07,46,11.00
2020,11,05,07,47,11.00
2020,11,05,07,48,11.00
2020,11,05,07,49,11.00
2020,11,05,07,50,11.00
2020,11,05,07,51,11.90
2020,11,05,07,52,12.00
2020,11,05,07,53,12.70
2020,11,05,07,54,14.00
2020,11,05,07,55,14.00
2020,11,05,07,56,15.30
2020,11,05,07,57,16.00
2020,11,05,07,58,16.20
2020,11,05,07,59,18.20
2020,11,05,08,00,19.00
2020,11,05,08,01,19.00
2020,11,05,08,02,19.00
2020,11,05,08,03,20.40
2020,11,05,08,04,22.60
2020,11,05,08,05,24.90
2020,11,05,08,06,25.00
2020,11,05,08,07,24.30
2020,11,05,08,08,22.10
2020,11,05,08,09,21.00
2020,11,05,08,10,21.00
2020,11,05,08,11,21.00
2020,11,05,08,12,21.00
2020,11,05,08,13,21.50
2020,11,05,08,14,23.00
2020,11,05,08,15,23.00
2020,11,05,08,16,23.00
2020,11,05,08,17,23.00
2020,11,05,08,18,23.00
2020,11,05,08,19,25.00
2020,11,05,08,20,25.20
2020,11,05,08,21,26.00
2020,11,05,08,22,26.90
2020,11,05,08,23,29.10
2020,11,05,08,24,31.40
2020,11,05,08,25,32.80
2020,11,05,08,26,33.20
2020,11,05,08,27,35.00
2020,11,05,08,28,35.00
2020,11,05,08,29,34.10
2020,11,05,08,30,33.00
2020,11,05,08,31,34.40
2020,11,05,08,32,36.60
2020,11,05,08,33,37.20
2020,11,05,08,34,39.00
2020,11,05,08,35,38.40
2020,11,05,08,36,37.00
2020,11,05,08,37,37.00
2020,11,05,08,38,38.40
2020,11,05,08,39,41.50
2020,11,05,08,40,45.70
2020,11,05,08,41,47.00
2020,11,05,08,42,47.00
2020,11,05,08,43,46.60
2020,11,05,08,44,44.90
2020,11,05,08,45,44.00
2020,11,05,08,46,42.40
2020,11,05,08,47,41.90
2020,11,05,08,48,39.80
2020,11,05,08,49,39.30
2020,11,05,08,50,41.80
2020,11,05,08,51,45.70
2020,11,05,08,52,49.80
2020,11,05,08,53,57.00
2020,11,05,08,54,62.50
2020,11,05,08,55,67.40
2020,11,05,08,56,68.40
2020,11,05,08,57,65.20
2020,11,05,08,58,62.50
2020,11,05,08,59,60.70
2020,11,05,09,00,60.00
2020,11,05,09,01,62.20
2020,11,05,09,02,66.10
2020,11,05,09,03,70.60
2020,11,05,09,04,72.90
2020,11,05,09,05,74.00
2020,11,05,09,06,75.40
2020,11,05,09,07,76.80
2020,11,05,09,08,75.90
2020,11,05,09,09,74.00
2020,11,05,09,10,74.60
2020,11,05,09,11,76.00
2020,11,05,09,12,76.00
2020,11,05,09,13,76.70
2020,11,05,09,14,77.00
2020,11,05,09,15,75.80
2020,11,05,09,16,74.00
2020,11,05,09,17,73.40
2020,11,05,09,18,72.90
2020,11,05,09,19,75.10
2020,11,05,09,20,76.70
2020,11,05,09,21,78.60
2020,11,05,09,22,82.80
2020,11,05,09,23,83.00
2020,11,05,09,24,83.30
2020,11,05,09,25,85.90
2020,11,05,09,26,89.70
2020,11,05,09,27,92.40
2020,11,05,09,28,94.70
2020,11,05,09,29,94.90
2020,11,05,09,30,92.60
2020,11,05,09,31,91.00
2020,11,05,09,32,91.90
2020,11,05,09,33,94.10
2020,11,05,09,34,97.20
2020,11,05,09,35,98.00
2020,11,05,09,36,96.90
2020,11,05,09,37,94.50
2020,11,05,09,38,92.10
2020,11,05,09,39,89.10
2020,11,05,09,40,89.70
2020,11,05,09,41,91.00
2020,11,05,09,42,91.00
2020,11,05,09,43,88.20
2020,11,05,09,44,90.70
2020,11,05,09,45,94.80
2020,11,05,09,46,98.00
2020,11,05,09,47,100.30
2020,11,05,09,48,98.50
2020,11,05,09,49,93.60
2020,11,05,09,50,90.70
2020,11,05,09,51,85.40
2020,11,05,09,52,82.30
2020,11,05,09,53,81.00
2020,11,05,09,54,81.00
2020,11,05,09,55,81.00
2020,11,05,09,56,85.00
2020,11,05,09,57,89.90
2020,11,05,09,58,91.40
2020,11,05,09,59,93.00
2020,11,05,10,00,93.90
2020,11,05,10,01,96.70
2020,11,05,10,02,100.90
2020,11,05,10,03,102.00
2020,11,05,10,04,99.80
2020,11,05,10,05,96.60
2020,11,05,10,06,94.30
2020,11,05,10,07,93.00
2020,11,05,10,08,93.00
2020,11,05,10,09,93.00
2020,11,05,10,10,94.60
2020,11,05,10,11,95.00
2020,11,05,10,12,95.00
2020,11,05,10,13,95.60
2020,11,05,10,14,97.00
2020,11,05,10,15,95.90
2020,11,05,10,16,95.00
2020,11,05,10,17,95.00
2020,11,05,10,18,97.10
2020,11,05,10,19,98.80
2020,11,05,10,20,103.00
2020,11,05,10,21,106.80
2020,11,05,10,22,110.20
2020,11,05,10,23,111.00
2020,11,05,10,24,109.40
2020,11,05,10,25,109.00
2020,11,05,10,26,109.00
2020,11,05,10,27,109.00
2020,11,05,10,28,109.00
2020,11,05,10,29,107.80
2020,11,05,10,30,107.00
2020,11,05,10,31,107.00
2020,11,05,10,32,108.70
2020,11,05,10,33,107.00
2020,11,05,10,34,107.00
2020,11,05,10,35,107.00
2020,11,05,10,36,108.10
2020,11,05,10,37,110.40
2020,11,05,10,38,112.60
2020,11,05,10,39,117.80
2020,11,05,10,40,120.00
2020,11,05,10,41,120.00
2020,11,05,10,42,120.40
2020,11,05,10,43,120.40
2020,11,05,10,44,120.00
2020,11,05,10,45,120.80
2020,11,05,10,46,121.10
2020,11,05,10,47,123.00
2020,11,05,10,48,124.30
2020,11,05,10,49,127.00
2020,11,05,10,50,127.00
2020,11,05,10,51,127.70
2020,11,05,10,52,131.20
2020,11,05,10,53,132.00
2020,11,05,10,54,132.00
2020,11,05,10,55,132.00
2020,11,05,10,56,132.00
2020,11,05,10,57,133.10
2020,11,05,10,58,134.00
2020,11,05,10,59,134.00
2020,11,05,11,00,134.00
2020,11,05,11,01,133.60
2020,11,05,11,02,132.00
2020,11,05,11,03,134.20
2020,11,05,11,04,139.40
2020,11,05,11,05,143.00
2020,11,05,11,06,144.00
2020,11,05,11,07,146.10
2020,11,05,11,08,148.20
2020,11,05,11,09,149.00
2020,11,05,11,10,149.00
2020,11,05,11,11,148.40
2020,11,05,11,12,146.60
2020,11,05,11,13,146.00
2020,11,05,11,14,144.10
2020,11,05,11,15,144.00
2020,11,05,11,16,144.60
2020,11,05,11,17,146.00
2020,11,05,11,18,146.00
2020,11,05,11,19,144.50
2020,11,05,11,20,140.00
2020,11,05,11,21,137.50
2020,11,05,11,22,142.40
2020,11,05,11,23,149.50
2020,11,05,11,24,153.00
2020,11,05,11,25,153.00
2020,11,05,11,26,154.40
2020,11,05,11,27,151.70
2020,11,05,11,28,145.60
2020,11,05,11,29,138.20
2020,11,05,11,30,134.00
2020,11,05,11,31,130.30
2020,11,05,11,32,126.30
2020,11,05,11,33,125.00
2020,11,05,11,34,125.00
2020,11,05,11,35,124.90
2020,11,05,11,36,122.60
2020,11,05,11,37,120.00
2020,11,05,11,38,118.90
2020,11,05,11,39,120.00
2020,11,05,11,40,120.70
2020,11,05,11,41,124.30
2020,11,05,11,42,126.90
2020,11,05,11,43,128.50
2020,11,05,11,44,130.70
2020,11,05,11,45,132.90
2020,11,05,11,46,134.60
2020,11,05,11,47,137.80
2020,11,05,11,48,141.40
2020,11,05,11,49,146.10
2020,11,05,11,50,151.40
2020,11,05,11,51,152.40
2020,11,05,11,52,151.00
2020,11,05,11,53,151.00
2020,11,05,11,54,152.40
2020,11,05,11,55,154.70
2020,11,05,11,56,155.90
2020,11,05,11,57,155.80
2020,11,05,11,58,155.00
2020,11,05,11,59,155.00
2020,11,05,12,00,155.60
2020,11,05,12,01,157.40
2020,11,05,12,02,161.20
2020,11,05,12,03,165.10
2020,11,05,12,04,167.80
2020,11,05,12,05,171.30
2020,11,05,12,06,172.90
2020,11,05,12,07,174.00
2020,11,05,12,08,175.50
2020,11,05,12,09,174.30
2020,11,05,12,10,172.10
2020,11,05,12,11,172.00
2020,11,05,12,12,172.60
2020,11,05,12,13,176.10
2020,11,05,12,14,181.30
2020,11,05,12,15,183.00
2020,11,05,12,16,181.40
2020,11,05,12,17,179.10
2020,11,05,12,18,178.80
2020,11,05,12,19,177.30
2020,11,05,12,20,176.00
2020,11,05,12,21,177.10
2020,11,05,12,22,178.00
2020,11,05,12,23,176.40
2020,11,05,12,24,178.10
2020,11,05,12,25,181.40
2020,11,05,12,26,184.70
2020,11,05,12,27,191.10
2020,11,05,12,28,198.00
2020,11,05,12,29,202.80
2020,11,05,12,30,205.70
2020,11,05,12,31,211.00
2020,11,05,12,32,210.20
2020,11,05,12,33,206.70
2020,11,05,12,34,204.20
2020,11,05,12,35,200.90
2020,11,05,12,36,199.30
2020,11,05,12,37,199.00
2020,11,05,12,38,195.10
2020,11,05,12,39,191.60
2020,11,05,12,40,190.00
2020,11,05,12,41,188.20
2020,11,05,12,42,187.10
2020,11,05,12,43,189.30
2020,11,05,12,44,191.60
2020,11,05,12,45,191.90
2020,11,05,12,46,189.00
2020,11,05,12,47,185.90
2020,11,05,12,48,188.00
2020,11,05,12,49,189.10
2020,11,05,12,50,191.30
2020,11,05,12,51,192.00
2020,11,05,12,52,188.40
2020,11,05,12,53,189.00
2020,11,05,12,54,185.00
2020,11,05,12,55,183.10
2020,11,05,12,56,179.90
2020,11,05,12,57,175.50
2020,11,05,12,58,174.00
2020,11,05,12,59,168.60
2020,11,05,13,00,162.40
2020,11,05,13,01,160.00
2020,11,05,13,02,160.00
2020,11,05,13,03,160.00
2020,11,05,13,04,161.40
2020,11,05,13,05,164.40
2020,11,05,13,06,169.20
2020,11,05,13,07,177.20
2020,11,05,13,08,173.40
2020,11,05,13,09,172.00
2020,11,05,13,10,176.90
2020,11,05,13,11,182.40
2020,11,05,13,12,181.40
2020,11,05,13,13,179.00
2020,11,05,13,14,178.20
2020,11,05,13,15,180.40
2020,11,05,13,16,190.00
2020,11,05,13,17,191.80
2020,11,05,13,18,185.90
2020,11,05,13,19,197.00
2020,11,05,13,20,201.40
2020,11,05,13,21,190.20
2020,11,05,13,22,178.60
2020,11,05,13,23,178.40
2020,11,05,13,24,177.30
2020,11,05,13,25,178.10
2020,11,05,13,26,176.60
2020,11,05,13,27,173.80
2020,11,05,13,28,171.00
2020,11,05,13,29,171.30
2020,11,05,13,30,172.80
2020,11,05,13,31,176.20
2020,11,05,13,32,178.00
2020,11,05,13,33,178.80
2020,11,05,13,34,185.60
2020,11,05,13,35,183.60
2020,11,05,13,36,178.70
2020,11,05,13,37,176.20
2020,11,05,13,38,170.10
2020,11,05,13,39,164.20
2020,11,05,13,40,163.00
2020,11,05,13,41,156.60
2020,11,05,13,42,160.00
2020,11,05,13,43,161.00
2020,11,05,13,44,165.80
2020,11,05,13,45,165.70
2020,11,05,13,46,164.30
2020,11,05,13,47,162.50
2020,11,05,13,48,159.90
2020,11,05,13,49,156.40
2020,11,05,13,50,161.30
2020,11,05,13,51,169.00
2020,11,05,13,52,171.80
2020,11,05,13,53,180.30
2020,11,05,13,54,179.00
2020,11,05,13,55,174.10
2020,11,05,13,56,169.50
2020,11,05,13,57,163.00
2020,11,05,13,58,163.00
2020,11,05,13,59,166.30
2020,11,05,14,00,172.20
2020,11,05,14,01,162.70
2020,11,05,14,02,152.80
2020,11,05,14,03,155.70
2020,11,05,14,04,176.80
2020,11,05,14,05,179.60
2020,11,05,14,06,217.20
2020,11,05,14,07,230.50
2020,11,05,14,08,199.60
2020,11,05,14,09,222.80
2020,11,05,14,10,181.80
2020,11,05,14,11,169.60
2020,11,05,14,12,168.30
2020,11,05,14,13,163.90
2020,11,05,14,14,177.00
2020,11,05,14,15,212.60
2020,11,05,14,16,212.80
2020,11,05,14,17,199.20
2020,11,05,14,18,191.00
2020,11,05,14,19,195.20
2020,11,05,14,20,205.00
2020,11,05,14,21,200.70
2020,11,05,14,22,172.90
2020,11,05,14,23,157.30
2020,11,05,14,24,145.40
2020,11,05,14,25,148.70
2020,11,05,14,26,138.00
2020,11,05,14,27,129.10
2020,11,05,14,28,131.90
2020,11,05,14,29,132.40
2020,11,05,14,30,135.60
2020,11,05,14,31,142.80
2020,11,05,14,32,141.80
2020,11,05,14,33,129.80
2020,11,05,14,34,124.80
2020,11,05,14,35,123.00
2020,11,05,14,36,124.60
2020,11,05,14,37,131.10
2020,11,05,14,38,154.60
2020,11,05,14,39,158.70
2020,11,05,14,40,161.60
2020,11,05,14,41,142.40
2020,11,05,14,42,133.50
2020,11,05,14,43,128.80
2020,11,05,14,44,129.90
2020,11,05,14,45,132.80
2020,11,05,14,46,145.20
2020,11,05,14,47,158.10
2020,11,05,14,48,150.00
2020,11,05,14,49,142.00
2020,11,05,14,50,142.00
2020,11,05,14,51,136.40
2020,11,05,14,52,125.90
2020,11,05,14,53,121.30
2020,11,05,14,54,119.20
2020,11,05,14,55,109.20
2020,11,05,14,56,103.70
2020,11,05,14,57,124.00
2020,11,05,14,58,136.20
2020,11,05,14,59,166.40
2020,11,05,15,00,168.90
2020,11,05,15,01,160.80
2020,11,05,15,02,150.80
2020,11,05,15,03,130.50
2020,11,05,15,04,112.20
2020,11,05,15,05,102.90
2020,11,05,15,06,90.00
2020,11,05,15,07,85.40
2020,11,05,15,08,84.90
2020,11,05,15,09,86.00
2020,11,05,15,10,82.80
2020,11,05,15,11,77.80
2020,11,05,15,12,74.10
2020,11,05,15,13,71.60
2020,11,05,15,14,70.00
2020,11,05,15,15,69.60
2020,11,05,15,16,67.90
2020,11,05,15,17,67.00
2020,11,05,15,18,67.00
2020,11,05,15,19,66.90
2020,11,05,15,20,64.60
2020,11,05,15,21,63.00
2020,11,05,15,22,62.50
2020,11,05,15,23,62.00
2020,11,05,15,24,62.00
2020,11,05,15,25,62.00
2020,11,05,15,26,62.80
2020,11,05,15,27,62.00
2020,11,05,15,28,60.70
2020,11,05,15,29,57.10
2020,11,05,15,30,54.90
2020,11,05,15,31,54.00
2020,11,05,15,32,55.60
2020,11,05,15,33,60.00
2020,11,05,15,34,62.20
2020,11,05,15,35,63.00
2020,11,05,15,36,63.90
2020,11,05,15,37,65.00
2020,11,05,15,38,65.00
2020,11,05,15,39,63.40
2020,11,05,15,40,61.80
2020,11,05,15,41,59.60
2020,11,05,15,42,57.40
2020,11,05,15,43,56.00
2020,11,05,15,44,54.80
2020,11,05,15,45,53.30
2020,11,05,15,46,51.40
2020,11,05,15,47,49.10
2020,11,05,15,48,49.00
2020,11,05,15,49,48.40
2020,11,05,15,50,47.00
2020,11,05,15,51,47.00
2020,11,05,15,52,47.00
2020,11,05,15,53,46.20
2020,11,05,15,54,45.80
2020,11,05,15,55,44.40
2020,11,05,15,56,46.00
2020,11,05,15,57,46.00
2020,11,05,15,58,46.50
2020,11,05,15,59,47.00
2020,11,05,16,00,47.00
2020,11,05,16,01,45.80
2020,11,05,16,02,44.00
2020,11,05,16,03,43.40
2020,11,05,16,04,40.70
2020,11,05,16,05,37.80
2020,11,05,16,06,35.60
2020,11,05,16,07,35.00
2020,11,05,16,08,33.10
2020,11,05,16,09,32.80
2020,11,05,16,10,32.00
2020,11,05,16,11,31.10
2020,11,05,16,12,30.00
2020,11,05,16,13,28.60
2020,11,05,16,14,28.00
2020,11,05,16,15,26.10
2020,11,05,16,16,26.00
2020,11,05,16,17,26.00
2020,11,05,16,18,25.50
2020,11,05,16,19,25.00
2020,11,05,16,20,25.00
2020,11,05,16,21,25.00
2020,11,05,16,22,25.00
2020,11,05,16,23,24.60
2020,11,05,16,24,23.00
2020,11,05,16,25,22.10
2020,11,05,16,26,21.00
2020,11,05,16,27,19.60
2020,11,05,16,28,18.20
2020,11,05,16,29,18.00
2020,11,05,16,30,18.00
2020,11,05,16,31,17.30
2020,11,05,16,32,16.00
2020,11,05,16,33,14.90
2020,11,05,16,34,14.00
2020,11,05,16,35,12.40
2020,11,05,16,36,11.10
2020,11,05,16,37,10.60
2020,11,05,16,38,9.00
2020,11,05,16,39,8.10
2020,11,05,16,40,7.00
2020,11,05,16,41,5.50
2020,11,05,16,42,5.00
2020,11,05,16,43,5.00
2020,11,05,16,44,3.80
2020,11,05,16,45,0.00
2020,11,05,16,46,0.00
2020,11,05,16,47,0.00
2020,11,05,16,48,0.00
2020,11,05,16,49,0.00
2020,11,05,16,50,0.00
2020,11,05,16,51,0.00
2020,11,05,16,52,0.00
2020,11,05,16,53,0.00
2020,11,05,16,54,0.00
2020,11,05,16,55,0.00
2020,11,05,16,56,0.00
2020,11,05,16,57,0.00
2020,11,05,16,58,0.00
2020,11,05,16,59,0.00
2020,11,05,17,00,0.00
2020,11,05,17,01,0.00
2020,11,05,17,02,0.00
2020,11,05,17,03,0.00
2020,11,05,17,04,0.00
2020,11,05,17,05,0.00
2020,11,05,17,06,0.00
2020,11,05,17,07,0.00
2020,11,05,17,08,0.00
2020,11,05,17,09,0.00
2020,11,05,17,10,0.00
2020,11,05,17,11,0.00
2020,11,05,17,12,0.00
2020,11,05,17,13,0.00
2020,11,05,17,14,0.00
2020,11,05,17,15,0.00
2020,11,05,17,16,0.00
2020,11,05,17,17,0.00
2020,11,05,17,18,0.00
2020,11,05,17,19,0.00
2020,11,05,17,20,0.00
2020,11,05,17,21,0.00
2020,11,05,17,22,0.00
2020,11,05,17,23,0.00
2020,11,05,17,24,0.00
2020,11,05,17,25,0.00
2020,11,05,17,26,0.00
2020,11,05,17,27,0.00
2020,11,05,17,28,0.00
2020,11,05,17,29,0.00